User: anonymous   Login
Location: Anywhere
(41.5000°N, 71.4000°W)
Time: 09:24:51
(UTC-04:00)
Language:

IRAS - Orbit

View from above orbital plane
View from above orbital plane
View from above satellite
View from above satellite

Ground track
Ground track

The orbit data is extracted from the following two-line orbital elements,

1 13777U 83004A   22221.73852476 -.00000211  00000-0 -11271-3 0  9992
2 13777  98.9854  40.5065 0017446 253.1033 106.8219 14.00506809689349
Epoch (UTC): 09 August 2022 17:43:28
Eccentricity: 0.0017446
inclination: 98.9854°
perigee height: 879 km
apogee height: 905 km
right ascension of ascending node: 40.5065°
argument of perigee: 253.1033°
revolutions per day: 14.00506809
mean anomaly at epoch: 106.8219°
orbit number at epoch: 68934

The dashed part of the orbit path shows where the satellite is in the earth's shadow,  

DLR